Simultaneous Nadir Overpasses (SNOs) Predictions

Prediction of SNOs over PacNW region [( 10.00, 139.50) to ( 22.70, 165.60)] between AQUA and NPP Satellites:

Table of predicted SNOs over PacNW region for the next 30.0 days since TLE Epoch: 8/13/2022
Index Date (AQUA) Time (AQUA) AQUA Lat,Lon Date (NPP) Time (NPP) NPP Lat,Lon Distance(km) Time Diff (sec)
1 08/15/2022 02:54:14 22.67, 157.94 08/15/2022 02:50:45 25.37, 154.51 460.48 209
2 08/20/2022 15:20:29 22.63, 158.31 08/20/2022 15:23:58 25.15, 154.48 479.60 209
3 08/23/2022 03:41:43 22.66, 146.11 08/23/2022 03:40:37 21.99, 142.67 362.47 66
4 08/31/2022 02:50:17 22.68, 159.01 08/31/2022 02:49:55 21.93, 155.35 385.07 22
5 09/02/2022 16:28:29 10.80, 139.50 09/02/2022 16:25:12 11.00, 136.76 299.83 197
6 09/08/2022 03:34:45 12.08, 149.62 09/08/2022 03:37:40 11.11, 145.23 490.30 175
